Dewpoint
58 57 57 58 58 58 58 58 58 58 58 58 58 57 57 57 57 57 58 58 57 57 57 58 59 60 54 36 36 53 72 69 45 24 25 36 37 36 34 35 35 34 39 50 52 53 55
58 58 58 58 58 58 58 58 58 58 58 58 57 58 58 57 57 57 57 57 57 57 57 58 59 60 46 31 44 51 57 44 29 22 29 34 38 35 35 35 35 43 49 51 54 54 56
58 58 58 58 58 58 58 58 58 58 58 58 58 58 58 57 57 57 57 56 56 56 57 58 59 57 35 30 45 43 35 28 25 22 35 33 35 31 34 35 37 45 47 51 52 55 55
58 58 58 59 59 59 59 59 59 59 58 58 58 57 57 57 57 56 56 55 55 58 58 58 60 53 24 27 40 41 34 27 22 23 27 33 34 32 36 36 34 39 41 43 48 54 55
58 57 58 58 58 59 59 59 59 59 58 58 58 58 57 56 55 55 54 54 56 59 58 59 52 46 17 44 36 38 34 26 25 24 28 31 36 35 33 32 32 33 32 31 44 48 53
57 57 57 57 58 59 59 59 59 59 58 58 58 57 56 55 54 53 53 54 54 56 57 56 51 31 26 28 31 30 34 29 28 30 33 34 35 34 32 29 28 30 28 30 34 47 49
58 57 57 57 58 59 59 59 59 58 57 57 56 56 55 54 53 52 51 41 41 40 48 37 31 20 28 31 32 26 28 28 26 30 40 31 38 35 29 30 30 31 30 30 46 50 50
58 58 57 57 57 57 58 59 58 57 56 56 56 55 55 54 53 53 50 36 40 40 36 37 39 37 36 34 33 27 25 24 26 35 28 36 37 34 28 29 28 28 27 37 48 50 49
60 59 58 57 57 57 58 58 58 56 56 56 55 55 54 53 53 49 41 40 44 41 36 34 37 36 35 36 31 26 24 24 26 29 30 38 34 28 25 24 23 25 24 40 45 46 44
60 60 60 59 58 58 58 58 57 56 56 55 55 55 53 52 44 44 38 43 45 43 32 24 32 32 35 35 27 30 23 23 23 29 27 33 25 25 30 27 23 19 22 32 47 44 39
60 60 60 59 58 59 58 58 56 56 55 55 55 55 52 51 47 39 41 46 45 38 13 31 28 32 32 26 23 23 23 22 22 23 25 28 23 25 21 22 24 20 34 43 44 41 40
60 60 60 60 59 59 58 57 56 56 55 55 54 53 52 49 49 45 47 45 38 25 19 29 27 28 27 22 16 20 21 23 23 21 20 23 20 18 18 19 22 31 35 35 35 35 32
60 60 60 59 59 58 57 57 56 55 54 54 53 52 51 48 38 47 47 37 30 20 25 26 23 25 25 23 19 19 21 21 20 20 21 20 19 17 18 17 18 19 23 26 28 30 24
60 60 59 59 58 58 57 57 56 55 54 53 52 51 50 49 49 48 40 34 26 19 24 30 20 23 22 20 21 18 20 19 19 19 17 18 16 17 16 18 16 18 14 16 19 15 21
60 59 59 59 58 57 57 57 55 54 53 53 51 48 49 49 50 49 34 30 24 24 30 21 19 24 21 17 18 17 20 19 19 18 19 19 17 14 20 14 17 18 17 21 28 39 31
60 59 59 59 57 57 57 56 55 54 53 52 50 47 48 49 50 40 32 29 26 30 31 21 19 21 21 19 16 17 18 18 18 19 19 20 19 17 28 33 35 18 33 24 33 29 26
59 59 59 59 58 58 57 56 55 54 53 52 44 46 47 49 44 37 26 28 28 27 30 21 20 20 20 18 19 18 18 16 16 17 20 16 15 17 32 34 29 31 33 37 38 36 29
59 59 59 59 58 58 57 56 54 53 52 50 43 44 47 45 34 36 32 30 33 28 26 25 24 24 23 18 18 19 18 17 17 17 17 17 18 18 24 39 40 37 35 34 20 40 42
59 59 59 59 59 58 57 56 54 53 52 49 45 47 49 43 32 34 36 34 32 35 32 29 26 25 29 33 29 19 18 28 28 17 20 22 24 30 32 34 38 38 41 39 36 37 41
59 59 59 59 59 58 57 56 54 53 53 49 49 45 46 43 40 38 43 44 40 37 34 32 33 27 39 37 39 35 28 40 43 35 52 34 27 20 16 26 38 38 39 39 36 33 41
59 59 59 59 59 58 57 56 55 53 52 49 48 48 49 42 43 45 46 45 42 39 39 38 30 27 35 38 38 39 39 41 42 52 40 26 28 35 41 39 37 37 37 39 38 40 34
59 59 59 59 58 57 57 56 55 54 52 44 43 45 48 45 47 48 44 44 42 43 43 37 29 35 33 39 38 38 41 41 38 41 40 40 41 41 39 41 38 35 38 39 40 40 40
59 59 59 59 58 57 57 57 55 54 53 49 48 46 48 45 48 48 44 43 42 44 44 43 43 40 38 40 43 42 45 43 44 41 41 42 42 39 37 42 38 35 37 38 39 41 39
58 58 59 58 57 57 57 57 56 55 54 52 50 47 44 38 46 47 43 42 42 43 44 44 44 42 47 46 43 40 40 41 41 43 45 46 45 43 40 40 33 35 37 39 39 40 42
58 58 57 56 56 56 57 57 57 55 54 53 52 48 46 37 40 39 43 42 43 46 45 44 44 47 48 42 38 38 36 36 39 40 39 44 44 41 39 36 37 35 41 40 39 34 41
57 56 56 56 56 56 56 56 56 56 55 53 52 51 48 44 37 42 41 42 44 45 46 43 45 48 44 43 41 39 34 35 34 38 39 38 43 39 41 34 31 37 37 41 39 33 40
56 55 55 55 55 55 55 55 56 57 55 54 53 52 50 46 44 45 42 40 41 45 46 45 45 45 42 41 40 39 35 39 34 36 40 40 41 37 37 34 33 38 38 41 36 38 46
55 55 55 55 55 54 53 54 55 56 56 54 53 53 50 48 47 47 45 44 44 49 46 47 44 45 44 41 44 41 38 37 36 39 40 40 39 37 37 37 33 42 41 38 46 48 49
52 53 54 54 54 52 53 54 56 56 55 53 52 52 53 50 48 48 47 46 44 43 43 49 49 49 46 43 43 43 40 38 39 35 39 36 39 40 40 40 46 48 48 48 46 49 50
Lifted_Index
13 13 13 13 13 13 13 13 12 12 13 13 12 12 12 12 12 12 12 12 12 12 12 12 12 11 10 8 8 6 5 4 5 4 3 2 1 1 0 0 1 1 0 -2 -4 -5 -5
13 13 13 13 13 13 13 13 13 13 13 13 13 13 12 12 12 12 12 12 12 12 12 12 12 11 9 8 8 7 6 5 4 3 3 2 1 1 0 0 1 0 -1 -3 -4 -5 -5
13 13 13 13 13 13 13 13 13 13 13 13 13 13 13 12 12 12 12 12 12 12 12 11 11 10 9 8 9 8 7 5 4 3 3 2 2 1 0 0 -0 -1 -2 -3 -4 -5 -5
12 12 12 12 12 12 12 12 12 12 13 13 13 13 13 13 12 12 12 12 12 12 12 11 10 10 9 9 9 8 7 4 3 3 3 3 2 1 1 0 -0 -1 -1 -3 -4 -5 -5
11 11 11 11 11 11 11 11 11 11 12 12 13 13 13 13 12 12 12 12 12 11 10 10 10 9 9 9 9 8 7 4 3 2 3 2 1 1 0 0 0 0 -0 -1 -2 -4 -4
11 11 11 11 11 11 11 11 11 11 11 11 12 13 13 13 13 12 12 12 11 9 8 9 9 8 9 8 8 8 7 5 3 2 2 1 0 0 -0 0 0 0 0 -0 -2 -3 -3
11 11 11 11 11 11 11 10 10 10 10 11 11 12 13 13 12 12 12 11 10 8 8 8 8 8 8 8 8 8 7 5 3 2 1 0 -0 -0 -0 -0 -0 0 -0 -1 -2 -3 -3
10 10 10 10 10 10 10 10 10 10 10 10 11 12 13 13 12 12 11 10 9 8 8 8 8 8 8 8 7 8 7 5 3 2 1 0 -0 -0 -0 -0 -0 -0 -0 -1 -2 -3 -3
9 9 10 10 10 10 10 10 10 10 10 10 10 11 12 12 12 11 11 10 9 8 8 7 8 7 7 7 7 7 7 6 4 2 1 1 -0 -0 -0 -0 -0 0 -0 -1 -2 -2 -2
8 9 9 9 9 9 9 9 10 10 10 10 10 11 12 12 11 11 10 9 9 7 6 6 7 7 7 7 7 7 7 6 5 4 3 2 1 0 0 0 0 0 -0 -1 -2 -2 -2
8 8 8 8 8 8 9 9 9 10 10 10 10 11 12 12 11 10 9 9 8 6 4 5 7 7 7 7 7 7 7 7 6 5 4 4 3 1 1 1 1 0 0 -1 -2 -2 -1
7 7 7 7 7 8 8 8 9 9 10 9 10 11 11 11 10 10 9 8 7 5 4 5 7 7 7 7 7 7 7 7 6 6 5 5 4 2 1 1 1 1 0 -1 -1 -1 -0
6 7 7 7 7 7 7 7 8 9 9 9 10 10 10 10 10 10 9 7 5 4 5 6 6 6 6 6 6 7 7 6 6 5 5 4 3 2 1 1 1 0 0 -0 -0 -0 -0
6 6 6 6 6 6 7 7 8 8 8 9 9 9 9 9 9 9 7 6 4 4 5 6 6 6 6 6 6 6 6 6 6 5 4 3 2 1 1 1 0 0 -0 -0 -0 0 0
6 6 6 6 6 6 6 7 7 8 8 8 8 7 7 7 8 8 6 5 4 5 5 5 5 5 5 5 6 6 6 6 6 6 4 2 1 1 1 0 0 0 0 -0 -0 0 0
5 6 6 6 5 6 6 6 7 7 7 8 6 5 5 7 7 7 6 5 5 5 5 5 4 4 4 5 5 6 6 5 5 5 4 2 1 1 1 0 0 0 0 -0 -0 -0 -0
5 5 5 5 5 5 6 6 6 6 6 6 5 4 5 6 6 6 5 5 6 6 5 4 3 3 4 4 5 5 5 5 5 5 4 3 1 1 0 0 0 0 0 -0 -0 -0 -0
5 5 5 5 5 5 5 5 5 6 5 4 3 3 5 6 6 5 5 5 6 6 5 4 3 3 3 4 4 4 4 4 4 4 3 2 1 0 0 0 0 0 0 0 -0 -0 -0
5 5 5 5 5 5 5 5 5 5 5 3 2 2 4 5 4 4 4 4 4 4 4 3 3 2 2 3 3 3 3 3 3 3 3 2 1 0 -0 -0 0 0 0 0 0 -0 -0
4 5 5 5 5 4 4 5 5 5 5 3 1 1 2 3 3 3 2 2 2 2 2 2 2 2 2 2 2 1 1 2 2 2 2 2 1 0 -0 -0 -0 -0 -0 0 0 -0 -0
4 4 5 5 5 4 4 4 4 5 5 4 1 -0 0 1 1 1 1 1 0 0 1 1 2 2 1 1 0 0 0 1 1 1 2 2 1 0 0 -0 -0 0 0 0 0 0 -0
4 4 4 4 4 4 4 4 4 4 5 5 3 1 0 0 0 0 0 0 0 -0 0 1 1 1 1 -0 -0 -0 -0 0 0 1 1 1 0 0 -0 -0 0 0 0 0 0 0 0
4 4 4 4 4 4 4 4 4 4 4 5 4 3 2 0 0 -0 -0 -0 -0 -0 -0 -0 0 0 -0 -0 -1 -1 -0 -0 0 0 0 0 0 -0 -0 -0 -0 0 0 0 0 0 0
4 4 4 4 5 4 4 4 4 4 4 4 5 5 4 2 1 -0 -0 -0 -0 -0 -0 -1 -1 -1 -1 -1 -1 -1 -0 -0 -0 -0 0 -0 -0 -0 -1 -1 -0 -0 0 0 0 0 0
4 4 4 5 5 5 4 4 4 4 4 4 5 5 5 3 2 1 0 -0 -0 -0 -1 -1 -1 -1 -1 -1 -1 -1 -1 -0 -0 -0 -0 -0 -0 -1 -1 -1 -0 -0 0 0 0 0 0
4 4 4 5 5 5 5 5 5 4 4 4 4 5 5 4 3 2 1 0 -0 -0 -1 -1 -2 -1 -2 -2 -1 -1 -1 -0 -0 0 0 0 -0 -0 -0 -0 -0 0 0 0 0 0 0
4 4 5 5 5 5 5 5 5 5 4 4 4 5 5 5 4 3 2 1 0 -0 -1 -1 -2 -2 -2 -2 -2 -1 -1 -0 -0 0 0 0 0 0 0 -0 -0 0 0 0 -0 0 0
5 5 5 5 5 5 5 6 6 5 5 4 4 4 5 4 4 4 3 2 1 0 -1 -1 -2 -2 -2 -2 -2 -1 -1 -0 -0 -0 -0 -0 -0 -0 -0 -0 -0 -0 0 -0 -0 0 0
6 6 6 6 6 5 6 6 6 5 5 4 4 4 5 4 4 4 4 3 2 1 -0 -1 -1 -2 -1 -1 -1 -1 -1 -1 -0 -0 -0 -1 -1 -1 -1 -1 -1 -0 -0 -0 -0 0 1